Hourly Data Report for November 09, 2019

All times are specified in Local Standard Time (LST). Add 1 hour to adjust for Daylight Saving Time where and when it is observed.

HOPE A
BRITISH COLUMBIA
Current Station Operator: NAVCAN

49°22'06.000" N
121°29'53.000" W
39.00 m
1113542
71187
YHE

Download Data

Hourly Data (November 2019)
Hourly Data Report for November 9, 2019
TIME Temp Definition
°C
Dew Point Definition
°C
Rel Hum Definition
%
Wind Dir Definition
10's deg

Wind Spd Definition
km/h
Visibility Definition
km
Stn Press Definition
kPa
Hmdx Definition


Wind Chill Definition


Weather Definition


00:00 7.4 4.8 84 LegendMM 4 16.1 101.69     LegendNANA
01:00 6.6 5.4 92 LegendMM 4 16.1 101.74     Rain
02:00 6.7 6.1 96   0 14.5 101.77     Rain
03:00 6.8 6.4 97 LegendMM 4 11.3 101.76     Rain
04:00 8.1 6.6 90   0 16.1 101.78     LegendNANA
05:00 7.1 6.4 95   0 16.1 101.75     LegendNANA
06:00 7.3 6.4 94 LegendMM 4 16.1 101.74     LegendNANA
07:00 7.0 6.4 96 LegendMM 4 16.1 101.76     LegendNANA
08:00 6.9 6.5 97 LegendMM 4 6.4 101.84     Rain,Fog
09:00 8.6 7.4 92 23 11 9.7 101.83     Rain,Fog
10:00 8.7 7.5 92 23 9 11.3 101.84     LegendNANA
11:00 8.8 7.6 92 21 13 11.3 101.89     LegendNANA
12:00 9.3 8.1 92 23 13 8.1 101.86     Fog
13:00 9.2 8.1 93 22 11 8.1 101.80     Fog
14:00 9.7 8.4 91 24 8 8.1 101.77     Fog
15:00 9.6 8.4 92 24 9 8.1 101.75     Fog
16:00 9.4 8.5 94 23 13 6.4 101.79     Fog
17:00 9.1 8.5 96 LegendMM 4 4.8 101.77     Rain,Fog
18:00 9.3 8.5 95 23 11 6.4 101.79     Fog
19:00 9.1 8.5 96 22 13 4.8 101.83     Rain,Fog
20:00 9.0 8.6 97 23 9 4.0 101.82     Rain,Fog
21:00 8.9 8.6 98 22 9 2.8 101.82     Rain,Fog
22:00 9.0 8.6 97 23 8 3.2 101.84     Rain,Fog
23:00 9.1 8.7 97 24 8 2.8 101.85     Rain,Fog

Notes on Data Quality.

Legend

  • E = Estimated
  • M = Missing
  • NA = Not Available
Date modified: